MONITOR-3 (RS58S)

Last updated on Wed Feb 05 2025 00:03:01 GMT+0000 (Coordinated Universal Time)

1 57180U 23091Q 25035.59464907 .00013394 00000+0 70596-3 0 9994 2 57180 97.5812 92.6675 0016152 42.2360 318.0114 15.15595933 88619
UTC large
Height (km)
Speed (km/s)
/
Latitude / Longitude
Inclination (degrees)
Orbital Period (minutes)
Azimuth
Elevation
Range (km)
Doppler Factor

Next 0 passes for location: London (51.5072 / 0.1276)

Sorry there are no passes over London.